カタログに戻る

STARLINK-37759

運用中通信SSO
NORAD 69223·PAYLOAD·🇺🇸 United States

打ち上げ May 26, 2026 から Vandenberg Space Force Base

Loading…

次のパス (今後24時間)

TLE

最新Source: CelesTrak SupGP

元期: Sep 14, 2026, 15:39 UTC

1 69223C 26115N   26257.65256944 -.00050635  00000+0 -15719-2 0  2572
2 69223  97.2838 273.8363 0001334  98.8262 298.4823 15.33462964    19

AllMySatでSTARLINK-37759をリアルタイム追跡

Download on the App Store